FW9486 Weather Reports


Display with metric or nautical units.
time (UTC)temp
F
wind
direction
speed
MPH
gust
MPH
rain 1hr
in
rain 24hr
in
rain mn
in
humidity
%
barometer
mb
20260903004547 66 280 6.0 14.0 0.00 0.10 0.10 33 1007.2
20260903003043 67 151 6.0 14.0 0.00 0.10 0.10 32 1007.4
20260903001542 67 226 7.0 16.0 0.00 0.10 0.10 33 1007.6
20260903000053 68 294 4.0 15.0 0.00 0.10 0.10 33 1007.4
20260902234547 67 341 6.0 13.0 0.00 0.10 0.10 33 1007.6
20260902233047 67 179 9.0 23.0 0.00 0.10 0.10 32 1007.6
20260902231544 67 229 10.0 23.0 0.00 0.10 0.10 33 1007.7
20260902230041 66 231 6.0 17.0 0.00 0.10 0.10 33 1007.7
20260902224546 68 240 10.0 21.0 0.00 0.10 0.10 30 1007.8
20260902223043 68 214 5.0 24.0 0.00 0.10 0.10 31 1007.9
20260902221549 68 255 7.0 17.0 0.00 0.10 0.10 29 1007.9
20260902220054 67 191 5.0 16.0 0.00 0.10 0.10 30 1008.1
20260902214542 66 199 8.0 19.0 0.00 0.10 0.10 31 1008.3
20260902213039 67 286 8.0 18.0 0.00 0.10 0.10 31 1008.3
20260902211600 68 306 8.0 19.0 0.00 0.10 0.10 30 1008.1
20260902210108 69 240 6.0 22.0 0.00 0.10 0.10 27 1008.1
20260902204544 69 236 10.0 24.0 0.00 0.10 0.10 24 1008.7
20260902203039 68 328 8.0 19.0 0.00 0.10 0.10 24 1008.2
20260902201555 69 195 6.0 23.0 0.00 0.10 0.10 24 1008.1
20260902200049 68 274 8.0 17.0 0.00 0.10 0.10 27 1008.3
20260902194550 68 315 4.0 18.0 0.00 0.10 0.10 28 1008.0
20260902193048 68 272 2.0 14.0 0.00 0.10 0.10 32 1008.2
20260902191546 67 269 8.0 21.0 0.00 0.10 0.10 30 1008.3
20260902190044 67 264 7.0 16.0 0.00 0.10 0.10 29 1008.6
20260902184605 66 219 10.0 19.0 0.00 0.10 0.10 27 1008.5
20260902183048 65 317 6.0 13.0 0.00 0.10 0.10 34 1008.3
20260902181554 63 0 1.0 7.0 0.00 0.10 0.10 64 1008.3
20260902174555 60 120 0.0 5.0 0.00 0.10 0.10 75 1008.5
20260902173048 59 139 1.0 10.0 0.00 0.10 0.10 79 1008.6
20260902171547 56 288 1.0 7.0 0.00 0.10 0.10 86 1008.4
20260902170042 54 280 2.0 4.0 0.00 0.10 0.10 88 1008.2
20260902164541 53 0 0.0 4.0 0.00 0.10 0.10 88 1008.2
20260902163047 52 295 1.0 4.0 0.00 0.10 0.10 91 1008.5
20260902161546 51 232 1.0 5.0 0.00 0.10 0.10 93 1008.5
20260902160041 51 0 0.0 1.0 0.01 0.10 0.10 94 1008.5
20260902154547 51 0 0.0 1.0 0.02 0.10 0.10 93 1008.9
20260902153045 51 36 0.0 3.0 0.02 0.10 0.10 92 1008.6
20260902151546 51 0 0.0 4.0 0.02 0.10 0.10 92 1009.2
20260902150048 51 312 1.0 3.0 0.01 0.09 0.09 91 1009.2
20260902144558 50 295 3.0 7.0 0.03 0.08 0.08 92 1009.2
20260902143046 50 349 1.0 3.0 0.05 0.08 0.08 93 1008.3
20260902141540 50 0 0.0 1.0 0.07 0.08 0.08 93 1008.2
20260902140046 50 0 0.0 2.0 0.07 0.08 0.08 91 1008.0
20260902134547 50 355 0.0 1.0 0.04 0.05 0.05 91 1008.2
20260902133048 49 0 0.0 2.0 0.03 0.03 0.03 88 1008.1
20260902131546 50 0 0.0 5.0 0.01 0.01 0.01 86 1007.9
20260902130045 51 108 2.0 5.0 0.01 0.01 0.01 79 1007.6
20260902124549 54 0 1.0 16.0 0.01 0.01 0.01 76 1007.2
20260902123051 50 322 3.0 6.0 0.00 0.00 0.00 82 1006.6
20260902121545 48 5 0.0 2.0 0.00 0.00 0.00 82 1006.1
20260902120046 49 119 1.0 2.0 0.00 0.00 0.00 80 1005.5
20260902114551 49 52 0.0 1.0 0.00 0.00 0.00 80 1005.5
20260902113051 50 0 0.0 1.0 0.00 0.00 0.00 76 1005.3
20260902111545 49 0 0.0 0.0 0.00 0.00 0.00 80 1005.2
20260902110048 49 0 0.0 0.0 0.00 0.00 0.00 79 1004.8
20260902104545 50 0 0.0 1.0 0.00 0.00 0.00 79 1005.0
20260902103041 50 0 0.0 1.0 0.00 0.00 0.00 79 1005.2
20260902101539 51 0 0.0 1.0 0.00 0.00 0.00 77 1005.0
20260902100045 51 0 0.0 0.0 0.00 0.00 0.00 78 1004.9
20260902094546 50 0 0.0 1.0 0.00 0.00 0.00 79 1005.2
20260902093040 50 0 0.0 1.0 0.00 0.00 0.00 79 1005.2
20260902091555 52 0 0.0 1.0 0.00 0.00 0.00 71 1005.3
20260902090046 53 27 0.0 2.0 0.00 0.00 0.00 76 1005.3
20260902084549 52 0 0.0 1.0 0.00 0.00 0.00 77 1005.5
20260902083042 52 0 0.0 2.0 0.00 0.00 0.00 75 1005.3
20260902081548 53 0 0.0 1.0 0.00 0.00 0.00 72 1005.6
20260902080106 55 0 0.0 1.0 0.00 0.00 0.00 68 1005.6
20260902074546 55 0 0.0 0.0 0.00 0.00 0.00 68 1005.8
20260902073040 56 0 0.0 1.0 0.00 0.00 0.00 68 1005.9
20260902071547 56 0 0.0 1.0 0.00 0.00 0.00 68 1006.1
20260902070047 55 0 0.0 2.0 0.00 0.00 0.00 68 1006.0
20260902064603 56 0 0.0 0.0 0.00 0.00 0.00 64 1006.1
20260902063048 58 0 0.0 1.0 0.00 0.00 0.00 64 1006.1
20260902061554 59 0 0.0 1.0 0.00 0.00 0.00 62 1006.1
20260902060045 59 0 0.0 1.0 0.00 0.00 0.00 60 1006.4
20260902054541 59 0 0.0 0.0 0.00 0.00 0.00 61 1006.4
20260902053054 59 0 0.0 0.0 0.00 0.00 0.00 59 1006.5
20260902051547 59 0 0.0 0.0 0.00 0.00 0.00 60 1006.5
20260902050042 61 0 0.0 0.0 0.00 0.00 0.00 58 1006.4
20260902044550 61 0 0.0 0.0 0.00 0.00 0.00 57 1006.4
20260902043047 62 0 0.0 1.0 0.00 0.00 0.00 56 1006.5
20260902041541 61 0 0.0 1.0 0.00 0.00 0.00 57 1006.5
20260902040042 62 0 0.0 0.0 0.00 0.00 0.00 54 1006.8
20260902034558 64 0 0.0 1.0 0.00 0.00 0.00 51 1006.7
20260902033100 65 0 0.0 1.0 0.00 0.00 0.00 50 1006.7
20260902031551 66 0 0.0 0.0 0.00 0.00 0.00 48 1006.5
20260902030042 66 0 0.0 1.0 0.00 0.00 0.00 47 1006.0
20260902024544 67 0 0.0 1.0 0.00 0.00 0.00 45 1005.7
20260902023045 69 0 0.0 1.0 0.00 0.00 0.00 42 1005.3
20260902021546 70 0 0.0 1.0 0.00 0.00 0.00 42 1005.2
20260902020045 71 11 0.0 2.0 0.00 0.00 0.00 41 1005.5
20260902014540 71 0 0.0 0.0 0.00 0.00 0.00 41 1005.7
20260902013048 73 0 0.0 0.0 0.00 0.00 0.00 40 1005.9
20260902011548 74 0 0.0 2.0 0.00 0.00 0.00 38 1005.9
20260902010047 75 274 0.0 3.0 0.00 0.00 0.00 37 1005.9